Regional Weather Roundup
Issued by NWS

Home | Current Version | Previous Version | Text Only | Print | Product List | Glossary Off
Versions: 1 2 3 4 5 6 7 8 9 10 11 12 13 14 15 16 17 18 19 20 21 22 23 24 25 26 27 28 29 30 31 32 33 34 35 36 37 38 39 40 41 42 43 44 45 46 47 48 49 50

000
ASUS43 KMKX 041621
RWRWI

WISCONSIN REGIONAL WEATHER ROUNDUP
NATIONAL WEATHER SERVICE MILWAUKEE/SULLIVAN WI
1100 AM CDT SAT JUL 04 2015

NOTE: "FAIR" INDICATES FEW OR NO CLOUDS BELOW 12,000 FEET WITH NO
SIGNIFICANT WEATHER AND/OR OBSTRUCTIONS TO VISIBILITY.

WIZ001-002-006>008-014>016-023>028-041700-
NORTHWEST WISCONSIN

CITY           SKY/WX    TMP DP  RH WIND       PRES   REMARKS
SUPERIOR ARPT  SUNNY     66  59  80 E9        29.97S
ASHLAND        SUNNY     70  64  81 N7        29.97F
HAYWARD        SUNNY     78  55  44 NE5       29.96F
SIREN          SUNNY     78  61  56 CALM      29.95F
CUMBERLAND     SUNNY     73  63  68 SE3       29.97S
RICE LAKE      SUNNY     75  64  67 CALM      29.98S HAZE
CHETEK         SUNNY     75  65  71 CALM      29.96S
LADYSMITH      SUNNY     76  63  65 CALM      29.99S
EAU CLAIRE     SUNNY     76  63  64 SW5       29.96R
MENOMONIE      SUNNY     74  64  69 SE3       29.97S
NEW RICHMOND   SUNNY     76  64  65 CALM      29.96S
OSCEOLA        SUNNY     78  63  60 CALM      29.97S
$$

WIZ003>005-009-010-017-018-041700-
NORTH CENTRAL WISCONSIN

CITY           SKY/WX    TMP DP  RH WIND       PRES   REMARKS
MANITOWISH WTR SUNNY     73  60  64 CALM      29.99S
ARBOR VITAE    SUNNY     73  63  68 CALM      30.00R
WOODRUFF       SUNNY     73  63  68 CALM      30.00R
RHINELANDER    SUNNY     74  60  61 SE5       30.00S
EAGLE RIVER    SUNNY     75  57  53 CALM      29.99S
LAND O LAKES   PTSUNNY   73  56  55 N3        30.01S
PHILLIPS       SUNNY     74  61  62 NE5       29.98S
TOMAHAWK       SUNNY     72  63  72 E3        30.00S
MEDFORD        SUNNY     74  63  69 E3        29.99S
MERRILL        SUNNY     74  64  72 CALM      29.99S
$$

WIZ029-030-035-036-043>047-041700-
CENTRAL WISCONSIN

CITY           SKY/WX    TMP DP  RH WIND       PRES   REMARKS
WAUSAU         SUNNY     75  61  61 S6        29.96S
MOSINEE        SUNNY     73  63  68 VRB5      29.99S
MARSHFIELD     SUNNY     75  62  64 VRB3      29.98S
STEVENS POINT  SUNNY     73  60  65 CALM      29.98S
WAUPACA        SUNNY     79  61  54 CALM      29.98S HX  80
WAUTOMA        SUNNY     79  61  53 VRB5      29.98S HX  80
WISC RAPIDS    SUNNY     76  60  57 N5        29.99S
CAMP DOUGLAS   MOSUNNY   77  65  68 VRB3      29.98S
$$

WIZ011>013-019>022-031-037>040-048>050-041700-
NORTHEAST WISCONSIN

CITY           SKY/WX    TMP DP  RH WIND       PRES   REMARKS
ANTIGO         SUNNY     73  62  68 CALM      29.99S
SHAWANO        SUNNY     75  62  65 NE3       29.97S
OCONTO         SUNNY     72  61  67 E8        29.97S
STURGEON BAY   SUNNY     70  61  73 NE7       30.01R
GREEN BAY      SUNNY     76  62  62 CALM      29.97S
MANITOWOC      SUNNY     74  63  68 MISG      29.98R
APPLETON       SUNNY     73  59  60 CALM      29.98S
CLINTONVILLE   CLOUDY    73  59  60 CALM      29.97S
OSHKOSH        SUNNY     77  63  61 E5        29.97S
$$

WIZ032>034-041-042-053>061-041700-
SOUTHWEST WISCONSIN

CITY           SKY/WX    TMP DP  RH WIND       PRES   REMARKS
LA CROSSE      SUNNY     75  60  59 S3        29.97R
SPARTA         SUNNY     76  57  50 CALM      29.98S
VIROQUA        SUNNY     75  59  57 CALM      30.00S
BOSCOBEL       SUNNY     77  59  53 SW5       29.99S
PRAIRIE DU CHI SUNNY     74  60  61 S3        29.99S
PLATTEVILLE    SUNNY     74  62  64 SW5       30.01R
$$

WIZ056-057-062-063-064-067-068-041700-
SOUTH CENTRAL WISCONSIN

CITY           SKY/WX    TMP DP  RH WIND       PRES   REMARKS
REEDSBURG      SUNNY     75  61  61 S3        29.98S
BARABOO/DELLS  SUNNY     76  56  48 W5        29.99S
LONE ROCK      SUNNY     74  59  59 CALM      30.00S
MINERAL POINT  SUNNY     75  59  57 W5        30.01S
MADISON        SUNNY     76  61  59 SW3       29.99S
MIDDLETON      SUNNY     77  56  48 NW5       30.00S
WATERTOWN      SUNNY     74  62  66 CALM      29.99S
MONROE         SUNNY     73  59  60 W5        30.01R
JANESVILLE     NOT AVBL
$$

WIZ051-052-058>065-066-070>072-041700-
SOUTHEAST WISCONSIN

CITY           SKY/WX    TMP DP  RH WIND       PRES   REMARKS
MILWAUKEE      MOSUNNY   78  59  51 VRB6      29.99R
WAUKESHA       SUNNY     73  57  56 NW7       30.00S
MILWAUKEE/TIMM SUNNY     75  55  50 W6        30.00R
RACINE         SUNNY     76  58  53 VRB3      30.01R
BURLINGTON     SUNNY     74  58  58 CALM      30.00R
KENOSHA        SUNNY     76  60  57 W6        30.00R
FOND DU LAC    SUNNY     77  61  57 VRB3      29.98S
SHEBOYGAN      SUNNY     77  61  57 NW8       29.98R
WEST BEND      SUNNY     75  57  53 W3        29.99S
JUNEAU         SUNNY     73  61  65 CALM      30.01R
$$

LSZ147-162-041700-
LAKE SUPERIOR

STATION/POSITION TIME  TEMP    WIND        PRES    WAVE
                       AIR SEA DIR/SP/G            HT/PER
                 (UTC) (F)     (DEG/KT/KT) (MB)    (FT/S)
W MID LAKE BUOY  1550   42 39   30/  6/  6 1015.8F   0
DEVILS ISLAND    1600   57      70/  5/  6 1015.5S
SAXON HARBOR     1500   60        CALM     1014.9
$$

LMZ867-665-643>646-041700-
LAKE MICHIGAN

STATION/POSITION TIME  TEMP    WIND        PRES    WAVE
                       AIR SEA DIR/SP/G            HT/PER
                 (UTC) (F)     (DEG/KT/KT) (MB)    (FT/S)
CHAMBERS ISLAND  1500   66      10/  6/  7 1014.9S
N MID LAKE BUOY  1550   53 47  180/  2/  4 1015.5R   1
NORTHPORT PIER   1500   64     110/  1/  3 1014.9S
SISTER BAY       1429   73      30/  6/  7   N/A
ALGOMA LAKESHORE 1511           80/ 10/ 11   N/A
KEWAUNEE LAKESHO 1500   65      40/  5/  8 1014.3R
SHEBOYGAN LAKESH 1600   69     130/  7/  7 1015.2R
PORT WASHINGTON  1500   79     260/  3/  6 1015.6S
ATWATER BUOY     1600   65 60  130/  4/  6 1016.7S
MILWAUKEE LAKESH 1600   70     100/  5/  6   N/A
KENOSHA   LAKESH 1600   73     120/  5/  7 1015.6R
$$

TC  - TEMPERATURE IN CELSIUS
VSB - VISIBILITY IN STATUTE MILES
WCI - WIND CHILL INDEX
HX  - HEAT INDEX



USA.gov is the U.S. government's official web portal to all federal, state and local government web resources and services.